Overview Statistics Trail Chart Weather Telemetry Raw packets
 

This is the latest recevied weather packets stored in our database for station/object EA1GEC-10. If no packets are shown the sender has not sent any weather packets the latest 10 day(s).

<< 4 5 6 7 8 9 10 >>
Time Temp. Humidity Pressure Rain* Wind** Luminosity Snow
1777738409 16.67° C 62% 1021.4 hPa - - - -
1777737508 16.67° C 62% 1021.3 hPa - - - -
1777736608 17.22° C 60% 1021.1 hPa - - - -
1777735708 17.78° C 60% 1021.1 hPa - - - -
1777734808 18.89° C 61% 1021.2 hPa - - - -
1777733918 18.33° C 61% 1021.6 hPa - - - -
1777733008 18.33° C 60% 1021.6 hPa - - - -
1777732108 18.33° C 60% 1022 hPa - - - -
1777731208 18.33° C 63% 1022.3 hPa - - - -
1777730308 17.22° C 64% 1022.4 hPa - - - -
1777729408 16.67° C 65% 1022.6 hPa - - - -
1777728508 16.11° C 64% 1022.7 hPa - - - -
1777727607 16.11° C 62% 1022.9 hPa - - - -
1777726707 16.67° C 62% 1022.7 hPa - - - -
1777725807 16.11° C 62% 1022.8 hPa - - - -
1777724910 16.11° C 61% 1022.9 hPa - - - -
1777724007 17.22° C 60% 1022.6 hPa - - - -
1777723107 18.33° C 58% 1022.6 hPa - - - -
1777722207 19.44° C 56% 1022.2 hPa - - - -
1777721307 20° C 55% 1022.4 hPa - - - -
1777720406 20.56° C 56% 1022.8 hPa - - - -
1777719506 19.44° C 57% 1022.8 hPa - - - -
1777718606 20.56° C 57% 1022.8 hPa - - - -
1777717706 20° C 58% 1022.9 hPa - - - -
1777715916 19.44° C 61% 1023.1 hPa - - - -

* Rain since midnight (hover to see other rain measurements)
** Current wind speed in m/s (hover to see current wind gust speed)